Time,TemperatureF,DewpointF,PressureIn,WindDirection,WindDirectionDegrees,WindSpeedMPH,WindSpeedGustMPH,Humidity,HourlyPrecipIn,Conditions,Clouds,dailyrainin,SoftwareType,DateUTC
2013-01-11 00:01:00,36.9,22.7,30.35,North,353,3.5,3.5,56,0.00,CLR,FEW,0.00,WeatherDisplay:10.37,2013-01-11 05:01:00,
2013-01-11 00:03:00,36.9,22.7,30.35,North,353,2.3,2.3,56,0.00,CLR,FEW,0.00,WeatherDisplay:10.37,2013-01-11 05:03:00,
2013-01-11 00:08:00,36.9,22.7,30.35,North,353,4.6,4.6,56,0.00,CLR,FEW,0.00,WeatherDisplay:10.37,2013-01-11 05:08:00,
2013-01-11 00:13:00,36.8,22.6,30.35,North,353,3.5,3.5,56,0.00,CLR,FEW,0.00,WeatherDisplay:10.37,2013-01-11 05:13:00,
2013-01-11 00:18:00,36.7,22.5,30.35,North,353,0.0,0.0,56,0.00,CLR,FEW,0.00,WeatherDisplay:10.37,2013-01-11 05:18:00,
2013-01-11 00:23:00,36.7,22.5,30.35,North,353,0.0,0.0,56,0.00,CLR,FEW,0.00,WeatherDisplay:10.37,2013-01-11 05:23:00,
2013-01-11 00:28:00,36.6,22.4,30.35,North,353,0.0,0.0,56,0.00,CLR,FEW,0.00,WeatherDisplay:10.37,2013-01-11 05:28:00,
2013-01-11 00:33:00,36.6,22.8,30.35,North,353,0.0,0.0,57,0.00,CLR,FEW,0.00,WeatherDisplay:10.37,2013-01-11 05:33:00,
2013-01-11 00:38:00,36.6,22.8,30.35,North,353,0.0,0.0,57,0.00,CLR,FEW,0.00,WeatherDisplay:10.37,2013-01-11 05:38:00,
2013-01-11 00:43:00,36.5,22.7,30.35,North,353,0.0,0.0,57,0.00,CLR,FEW,0.00,WeatherDisplay:10.37,2013-01-11 05:43:00,
2013-01-11 00:48:00,36.4,22.6,30.34,North,353,0.0,0.0,57,0.00,CLR,FEW,0.00,WeatherDisplay:10.37,2013-01-11 05:48:00,
2013-01-11 00:53:00,36.4,22.6,30.35,North,353,0.0,0.0,57,0.00,CLR,FEW,0.00,WeatherDisplay:10.37,2013-01-11 05:53:00,
2013-01-11 00:58:00,36.4,22.6,30.35,North,353,3.5,3.5,57,0.00,CLR,FEW,0.00,WeatherDisplay:10.37,2013-01-11 05:58:00,
2013-01-11 01:03:00,36.4,22.6,30.34,North,353,2.3,2.3,57,0.00,CLR,FEW,0.00,WeatherDisplay:10.37,2013-01-11 06:03:00,
2013-01-11 01:08:00,36.3,22.5,30.34,North,353,3.5,3.5,57,0.00,CLR,FEW,0.00,WeatherDisplay:10.37,2013-01-11 06:08:00,
2013-01-11 01:13:00,36.3,22.5,30.34,North,353,3.5,3.5,57,0.00,CLR,FEW,0.00,WeatherDisplay:10.37,2013-01-11 06:13:00,
2013-01-11 01:18:00,36.3,22.5,30.34,North,353,3.5,3.5,57,0.00,CLR,FEW,0.00,WeatherDisplay:10.37,2013-01-11 06:18:00,
2013-01-11 01:23:00,36.4,22.6,30.34,North,353,3.5,0.0,57,0.00,CLR,FEW,0.00,WeatherDisplay:10.37,2013-01-11 06:23:00,
2013-01-11 01:28:00,36.4,23.0,30.35,North,353,0.0,0.0,58,0.00,CLR,FEW,0.00,WeatherDisplay:10.37,2013-01-11 06:28:00,
2013-01-11 01:33:00,36.4,22.6,30.34,North,353,0.0,0.0,57,0.00,CLR,FEW,0.00,WeatherDisplay:10.37,2013-01-11 06:33:00,
2013-01-11 01:38:00,36.3,22.5,30.34,North,353,3.5,3.5,57,0.00,CLR,FEW,0.00,WeatherDisplay:10.37,2013-01-11 06:38:00,
2013-01-11 01:43:00,36.3,22.5,30.33,North,353,3.5,3.5,57,0.00,CLR,FEW,0.00,WeatherDisplay:10.37,2013-01-11 06:43:00,
2013-01-11 01:48:00,36.2,22.4,30.34,North,353,3.5,3.5,57,0.00,CLR,FEW,0.00,WeatherDisplay:10.37,2013-01-11 06:48:00,
2013-01-11 01:53:00,36.1,22.7,30.34,North,353,3.5,3.5,58,0.00,CLR,FEW,0.00,WeatherDisplay:10.37,2013-01-11 06:53:00,
2013-01-11 01:58:00,36.0,22.6,30.33,North,353,3.5,3.5,58,0.00,CLR,FEW,0.00,WeatherDisplay:10.37,2013-01-11 06:58:00,
2013-01-11 02:03:00,36.1,22.7,30.33,North,353,3.5,3.5,58,0.00,CLR,FEW,0.00,WeatherDisplay:10.37,2013-01-11 07:03:00,
2013-01-11 02:08:00,36.1,22.7,30.33,North,353,4.0,4.0,58,0.00,CLR,FEW,0.00,WeatherDisplay:10.37,2013-01-11 07:08:00,
2013-01-11 02:13:00,36.0,22.6,30.33,North,353,3.5,3.5,58,0.00,CLR,FEW,0.00,WeatherDisplay:10.37,2013-01-11 07:13:00,
2013-01-11 02:18:00,36.0,22.6,30.33,North,355,3.5,3.5,58,0.00,CLR,FEW,0.00,WeatherDisplay:10.37,2013-01-11 07:18:00,
2013-01-11 02:23:00,35.9,22.5,30.34,North,355,1.1,0.0,58,0.00,CLR,FEW,0.00,WeatherDisplay:10.37,2013-01-11 07:23:00,
2013-01-11 02:28:00,35.7,22.8,30.34,North,355,1.1,0.0,59,0.00,CLR,FEW,0.00,WeatherDisplay:10.37,2013-01-11 07:28:00,
2013-01-11 02:33:00,35.9,23.0,30.33,North,355,1.1,1.3,59,0.00,CLR,FEW,0.00,WeatherDisplay:10.37,2013-01-11 07:33:00,
2013-01-11 02:38:00,35.8,22.5,30.32,North,355,4.0,4.0,58,0.00,CLR,FEW,0.00,WeatherDisplay:10.37,2013-01-11 07:38:00,
2013-01-11 02:43:00,35.6,22.7,30.33,North,355,3.5,3.5,59,0.00,CLR,FEW,0.00,WeatherDisplay:10.37,2013-01-11 07:43:00,
2013-01-11 02:48:00,35.8,22.9,30.34,North,354,3.5,3.5,59,0.00,CLR,FEW,0.00,WeatherDisplay:10.37,2013-01-11 07:48:00,
2013-01-11 02:53:00,35.6,22.7,30.33,North,355,3.5,3.5,59,0.00,CLR,FEW,0.00,WeatherDisplay:10.37,2013-01-11 07:53:00,
2013-01-11 02:58:00,35.4,22.9,30.33,North,355,0.0,0.0,60,0.00,CLR,FEW,0.00,WeatherDisplay:10.37,2013-01-11 07:58:00,
2013-01-11 03:03:00,35.2,22.7,30.33,North,355,3.5,3.5,60,0.00,CLR,FEW,0.00,WeatherDisplay:10.37,2013-01-11 08:03:00,
2013-01-11 03:08:00,35.0,22.5,30.32,North,1,4.0,4.0,60,0.00,CLR,FEW,0.00,WeatherDisplay:10.37,2013-01-11 08:08:00,
2013-01-11 03:13:00,35.3,22.8,30.32,NNE,12,5.0,5.0,60,0.00,CLR,FEW,0.00,WeatherDisplay:10.37,2013-01-11 08:13:00,
2013-01-11 03:18:00,35.1,22.6,30.32,NNE,12,3.5,3.5,60,0.00,CLR,FEW,0.00,WeatherDisplay:10.37,2013-01-11 08:18:00,
2013-01-11 03:23:00,34.9,22.4,30.33,NNE,12,1.0,1.0,60,0.00,CLR,FEW,0.00,WeatherDisplay:10.37,2013-01-11 08:23:00,
2013-01-11 03:28:00,34.6,22.1,30.33,NNE,12,0.0,0.0,60,0.00,CLR,FEW,0.00,WeatherDisplay:10.37,2013-01-11 08:28:00,
2013-01-11 03:33:00,34.4,21.9,30.31,NNE,12,3.5,3.5,60,0.00,CLR,FEW,0.00,WeatherDisplay:10.37,2013-01-11 08:33:00,
2013-01-11 03:38:00,34.2,22.1,30.31,NNE,12,3.5,3.5,61,0.00,CLR,FEW,0.00,WeatherDisplay:10.37,2013-01-11 08:38:00,
2013-01-11 03:43:00,34.1,22.4,30.31,NNE,12,3.5,3.5,62,0.00,CLR,FEW,0.00,WeatherDisplay:10.37,2013-01-11 08:43:00,
2013-01-11 03:48:00,34.1,22.4,30.30,NNE,12,4.6,4.6,62,0.00,CLR,FEW,0.00,WeatherDisplay:10.37,2013-01-11 08:48:00,
2013-01-11 03:53:00,34.2,22.5,30.30,NNE,12,3.5,3.5,62,0.00,CLR,FEW,0.00,WeatherDisplay:10.37,2013-01-11 08:53:00,
2013-01-11 03:58:00,34.1,22.4,30.29,NNE,12,4.6,4.6,62,0.00,CLR,FEW,0.00,WeatherDisplay:10.37,2013-01-11 08:58:00,
2013-01-11 04:03:00,33.9,22.2,30.29,NNE,12,3.5,3.5,62,0.00,CLR,FEW,0.00,WeatherDisplay:10.37,2013-01-11 09:03:00,
2013-01-11 04:08:00,33.8,22.5,30.29,NNE,26,3.5,3.5,63,0.00,CLR,FEW,0.00,WeatherDisplay:10.37,2013-01-11 09:08:00,
2013-01-11 04:13:00,33.6,22.3,30.29,NNE,26,0.0,0.0,63,0.00,CLR,FEW,0.00,WeatherDisplay:10.37,2013-01-11 09:13:00,
2013-01-11 04:18:00,33.5,22.2,30.30,NNE,26,0.0,0.0,63,0.00,CLR,FEW,0.00,WeatherDisplay:10.37,2013-01-11 09:18:00,
2013-01-11 04:23:00,33.5,22.2,30.29,NNE,26,0.0,0.0,63,0.00,CLR,FEW,0.00,WeatherDisplay:10.37,2013-01-11 09:23:00,
2013-01-11 04:29:00,33.5,22.2,30.29,NNE,26,0.0,0.0,63,0.00,CLR,FEW,0.00,WeatherDisplay:10.37,2013-01-11 09:29:00,
2013-01-11 04:34:00,33.4,22.1,30.29,NNE,26,0.0,0.0,63,0.00,CLR,FEW,0.00,WeatherDisplay:10.37,2013-01-11 09:34:00,
2013-01-11 04:39:00,33.3,22.4,30.28,NNE,26,3.5,3.5,64,0.00,CLR,FEW,0.00,WeatherDisplay:10.37,2013-01-11 09:39:00,
2013-01-11 04:44:00,33.2,22.3,30.28,NNE,26,2.3,2.3,64,0.00,CLR,FEW,0.00,WeatherDisplay:10.37,2013-01-11 09:44:00,
2013-01-11 04:49:00,33.1,22.2,30.28,NNE,26,3.5,3.5,64,0.00,CLR,FEW,0.00,WeatherDisplay:10.37,2013-01-11 09:49:00,
2013-01-11 04:54:00,33.0,22.5,30.28,NNE,26,3.5,3.5,65,0.00,CLR,FEW,0.00,WeatherDisplay:10.37,2013-01-11 09:54:00,
2013-01-11 04:59:00,33.0,22.5,30.28,NNE,25,3.5,3.5,65,0.00,CLR,FEW,0.00,WeatherDisplay:10.37,2013-01-11 09:59:00,
2013-01-11 05:04:00,32.9,22.8,30.30,NNE,26,0.0,0.0,66,0.00,CLR,FEW,0.00,WeatherDisplay:10.37,2013-01-11 10:04:00,
2013-01-11 05:09:00,32.7,22.6,30.29,NNE,26,0.0,0.0,66,0.00,CLR,FEW,0.00,WeatherDisplay:10.37,2013-01-11 10:09:00,
2013-01-11 05:14:00,32.8,22.7,30.30,NNE,26,0.0,0.0,66,0.00,CLR,FEW,0.00,WeatherDisplay:10.37,2013-01-11 10:14:00,
2013-01-11 05:19:00,32.8,22.7,30.30,NNE,26,0.0,0.0,66,0.00,CLR,FEW,0.00,WeatherDisplay:10.37,2013-01-11 10:19:00,
2013-01-11 05:24:00,32.8,22.7,30.29,NNE,26,0.0,0.0,66,0.00,CLR,FEW,0.00,WeatherDisplay:10.37,2013-01-11 10:24:00,
2013-01-11 05:29:00,32.7,22.6,30.28,NNE,26,0.0,0.0,66,0.00,CLR,FEW,0.00,WeatherDisplay:10.37,2013-01-11 10:29:00,
2013-01-11 05:34:00,32.7,22.9,30.28,NNE,26,0.0,0.0,67,0.00,CLR,FEW,0.00,WeatherDisplay:10.37,2013-01-11 10:34:00,
2013-01-11 05:39:00,33.0,22.9,30.28,NNE,26,2.3,2.3,66,0.00,CLR,FEW,0.00,WeatherDisplay:10.37,2013-01-11 10:39:00,
2013-01-11 05:44:00,33.2,23.4,30.28,NNE,26,0.0,0.0,67,0.00,CLR,FEW,0.00,WeatherDisplay:10.37,2013-01-11 10:44:00,
2013-01-11 05:49:00,33.3,23.5,30.28,NNE,26,0.0,0.0,67,0.00,CLR,FEW,0.00,WeatherDisplay:10.37,2013-01-11 10:49:00,
2013-01-11 05:54:00,33.3,23.5,30.28,NNE,26,0.0,0.0,67,0.00,CLR,FEW,0.00,WeatherDisplay:10.37,2013-01-11 10:54:00,
2013-01-11 05:59:00,33.3,23.5,30.28,NNE,26,0.0,0.0,67,0.00,CLR,FEW,0.00,WeatherDisplay:10.37,2013-01-11 10:59:00,
2013-01-11 06:04:00,33.3,23.5,30.28,NNE,26,0.0,0.0,67,0.00,CLR,FEW,0.00,WeatherDisplay:10.37,2013-01-11 11:04:00,
2013-01-11 06:09:00,33.2,23.4,30.28,NNE,26,0.0,0.0,67,0.00,CLR,FEW,0.00,WeatherDisplay:10.37,2013-01-11 11:09:00,
2013-01-11 06:14:00,33.2,23.4,30.28,NNE,26,0.0,0.0,67,0.00,CLR,FEW,0.00,WeatherDisplay:10.37,2013-01-11 11:14:00,
2013-01-11 06:19:00,33.2,23.4,30.28,NNE,26,0.0,0.0,67,0.00,CLR,FEW,0.00,WeatherDisplay:10.37,2013-01-11 11:19:00,
2013-01-11 06:24:00,33.2,23.8,30.28,NNE,26,0.0,0.0,68,0.00,CLR,FEW,0.00,WeatherDisplay:10.37,2013-01-11 11:24:00,
2013-01-11 06:29:00,33.2,23.8,30.28,NNE,26,0.0,0.0,68,0.00,CLR,FEW,0.00,WeatherDisplay:10.37,2013-01-11 11:29:00,
2013-01-11 06:34:00,33.2,23.8,30.27,NNE,26,0.0,0.0,68,0.00,CLR,FEW,0.00,WeatherDisplay:10.37,2013-01-11 11:34:00,
2013-01-11 06:39:00,33.3,23.9,30.27,NNE,26,0.0,0.0,68,0.00,CLR,FEW,0.00,WeatherDisplay:10.37,2013-01-11 11:39:00,
2013-01-11 06:44:00,33.4,24.0,30.27,NNE,26,0.0,0.0,68,0.00,CLR,FEW,0.00,WeatherDisplay:10.37,2013-01-11 11:44:00,
2013-01-11 06:49:00,33.6,24.2,30.27,NNE,26,0.0,0.0,68,0.00,CLR,FEW,0.00,WeatherDisplay:10.37,2013-01-11 11:49:00,
2013-01-11 06:54:00,33.7,24.3,30.28,NNE,26,0.0,0.0,68,0.00,CLR,FEW,0.00,WeatherDisplay:10.37,2013-01-11 11:54:00,
2013-01-11 06:59:00,33.8,24.4,30.28,NNE,26,0.0,0.0,68,0.00,CLR,FEW,0.00,WeatherDisplay:10.37,2013-01-11 11:59:00,
2013-01-11 07:04:00,33.9,24.4,30.28,NNE,26,3.5,3.5,68,0.00,CLR,FEW,0.00,WeatherDisplay:10.37,2013-01-11 12:04:00,
2013-01-11 07:09:00,33.9,24.4,30.28,NNE,26,0.0,0.0,68,0.00,CLR,FEW,0.00,WeatherDisplay:10.37,2013-01-11 12:09:00,
2013-01-11 07:14:00,34.0,24.5,30.28,NNE,26,2.3,2.3,68,0.00,CLR,FEW,0.00,WeatherDisplay:10.37,2013-01-11 12:14:00,
2013-01-11 07:19:00,34.0,24.5,30.28,NNE,26,0.0,0.0,68,0.00,CLR,FEW,0.00,WeatherDisplay:10.37,2013-01-11 12:19:00,
2013-01-11 07:24:00,34.1,24.6,30.29,NNE,26,0.0,0.0,68,0.00,CLR,FEW,0.00,WeatherDisplay:10.37,2013-01-11 12:24:00,
2013-01-11 07:29:00,34.2,24.7,30.29,NNE,26,0.0,0.0,68,0.00,CLR,FEW,0.00,WeatherDisplay:10.37,2013-01-11 12:29:00,
2013-01-11 07:34:00,34.3,24.8,30.28,NNE,26,0.0,0.0,68,0.00,CLR,FEW,0.00,WeatherDisplay:10.37,2013-01-11 12:34:00,
2013-01-11 07:39:00,34.4,24.9,30.28,NNE,26,0.0,0.0,68,0.00,CLR,FEW,0.00,WeatherDisplay:10.37,2013-01-11 12:39:00,
2013-01-11 07:44:00,34.7,25.2,30.29,NNE,26,0.0,0.0,68,0.00,CLR,FEW,0.00,WeatherDisplay:10.37,2013-01-11 12:44:00,
2013-01-11 07:49:00,34.9,25.0,30.28,NNE,26,0.0,0.0,67,0.00,CLR,FEW,0.00,WeatherDisplay:10.37,2013-01-11 12:49:00,
2013-01-11 07:54:00,35.0,25.1,30.28,NNE,26,1.1,1.1,67,0.00,CLR,FEW,0.00,WeatherDisplay:10.37,2013-01-11 12:54:00,
2013-01-11 07:59:00,35.1,25.2,30.28,NNE,26,0.0,0.0,67,0.00,CLR,FEW,0.00,WeatherDisplay:10.37,2013-01-11 12:59:00,
2013-01-11 08:04:00,35.2,25.3,30.28,NNE,26,0.0,0.0,67,0.00,CLR,FEW,0.00,WeatherDisplay:10.37,2013-01-11 13:04:00,
2013-01-11 08:09:00,35.2,25.3,30.28,NNE,26,1.1,0.0,67,0.00,CLR,FEW,0.00,WeatherDisplay:10.37,2013-01-11 13:09:00,
2013-01-11 08:14:00,35.2,25.0,30.27,NNE,26,0.0,0.0,66,0.00,CLR,FEW,0.00,WeatherDisplay:10.37,2013-01-11 13:14:00,
2013-01-11 08:19:00,35.3,25.1,30.27,NNE,26,2.3,2.3,66,0.00,CLR,FEW,0.00,WeatherDisplay:10.37,2013-01-11 13:19:00,
2013-01-11 08:24:00,35.3,25.1,30.26,NNE,26,0.0,0.0,66,0.00,CLR,FEW,0.00,WeatherDisplay:10.37,2013-01-11 13:24:00,
2013-01-11 08:29:00,35.2,25.0,30.27,NNE,26,1.1,1.1,66,0.00,CLR,FEW,0.00,WeatherDisplay:10.37,2013-01-11 13:29:00,
2013-01-11 08:34:00,35.1,25.2,30.27,NNE,26,1.1,0.0,67,0.00,CLR,FEW,0.00,WeatherDisplay:10.37,2013-01-11 13:34:00,
2013-01-11 08:39:00,35.1,25.2,30.26,NNE,26,2.3,2.3,67,0.00,CLR,FEW,0.00,WeatherDisplay:10.37,2013-01-11 13:39:00,
2013-01-11 08:44:00,34.9,25.0,30.26,NNE,26,3.0,3.0,67,0.00,CLR,FEW,0.00,WeatherDisplay:10.37,2013-01-11 13:44:00,
2013-01-11 08:49:00,35.2,25.3,30.26,NNE,26,2.3,2.3,67,0.00,CLR,FEW,0.00,WeatherDisplay:10.37,2013-01-11 13:49:00,
2013-01-11 08:54:00,35.3,25.4,30.27,NNE,26,2.3,2.3,67,0.00,CLR,FEW,0.00,WeatherDisplay:10.37,2013-01-11 13:54:00,
2013-01-11 08:59:00,35.4,25.5,30.26,NNE,26,0.0,0.0,67,0.00,CLR,FEW,0.00,WeatherDisplay:10.37,2013-01-11 13:59:00,
2013-01-11 09:04:00,35.8,26.3,30.26,NNE,26,3.5,3.5,68,0.00,CLR,FEW,0.00,WeatherDisplay:10.37,2013-01-11 14:04:00,
2013-01-11 09:09:00,35.7,26.2,30.26,NNE,26,0.0,0.0,68,0.00,CLR,FEW,0.00,WeatherDisplay:10.37,2013-01-11 14:09:00,
2013-01-11 09:14:00,35.8,26.3,30.27,NNE,26,0.0,0.0,68,0.00,CLR,FEW,0.00,WeatherDisplay:10.37,2013-01-11 14:14:00,
2013-01-11 09:19:00,35.8,26.3,30.26,NNE,26,3.5,3.5,68,0.00,CLR,FEW,0.00,WeatherDisplay:10.37,2013-01-11 14:19:00,
2013-01-11 09:24:00,35.8,26.6,30.27,NNE,26,3.5,3.5,69,0.00,CLR,FEW,0.00,WeatherDisplay:10.37,2013-01-11 14:24:00,
2013-01-11 09:29:00,35.8,26.3,30.27,NNE,26,3.5,3.5,68,0.00,CLR,FEW,0.00,WeatherDisplay:10.37,2013-01-11 14:29:00,
2013-01-11 09:34:00,35.8,26.3,30.27,NNE,26,2.3,2.3,68,0.00,CLR,FEW,0.00,WeatherDisplay:10.37,2013-01-11 14:34:00,
2013-01-11 09:39:00,35.9,26.7,30.27,NNE,26,3.5,3.5,69,0.00,CLR,FEW,0.00,WeatherDisplay:10.37,2013-01-11 14:39:00,
2013-01-11 09:44:00,35.9,26.7,30.26,NNE,26,3.5,3.5,69,0.00,CLR,FEW,0.00,WeatherDisplay:10.37,2013-01-11 14:44:00,
2013-01-11 09:49:00,35.9,26.7,30.26,NNE,26,3.5,3.5,69,0.00,CLR,FEW,0.00,WeatherDisplay:10.37,2013-01-11 14:49:00,
2013-01-11 09:54:00,36.0,26.8,30.26,NNE,26,1.0,0.0,69,0.00,CLR,FEW,0.00,WeatherDisplay:10.37,2013-01-11 14:54:00,
2013-01-11 09:59:00,36.1,26.9,30.26,NNE,26,0.0,0.0,69,0.00,CLR,FEW,0.00,WeatherDisplay:10.37,2013-01-11 14:59:00,
2013-01-11 10:04:00,36.3,27.1,30.26,NNE,26,3.5,3.5,69,0.00,CLR,FEW,0.00,WeatherDisplay:10.37,2013-01-11 15:04:00,
2013-01-11 10:09:00,36.3,27.1,30.25,NNE,26,3.5,3.5,69,0.00,CLR,FEW,0.00,WeatherDisplay:10.37,2013-01-11 15:09:00,
2013-01-11 10:14:00,36.4,27.5,30.25,NNE,26,4.0,4.0,70,0.00,CLR,FEW,0.00,WeatherDisplay:10.37,2013-01-11 15:14:00,
2013-01-11 10:19:00,36.4,27.2,30.25,NNE,26,3.5,3.5,69,0.00,CLR,FEW,0.00,WeatherDisplay:10.37,2013-01-11 15:19:00,
2013-01-11 10:24:00,36.4,27.2,30.24,NNE,26,4.0,4.0,69,0.00,CLR,FEW,0.00,WeatherDisplay:10.37,2013-01-11 15:24:00,
2013-01-11 10:29:00,36.4,27.5,30.24,NNE,26,3.5,3.5,70,0.00,CLR,FEW,0.00,WeatherDisplay:10.37,2013-01-11 15:29:00,
2013-01-11 10:34:00,36.3,27.4,30.25,NNE,26,2.3,2.3,70,0.00,CLR,FEW,0.00,WeatherDisplay:10.37,2013-01-11 15:34:00,
2013-01-11 10:39:00,36.4,27.5,30.24,NNE,26,1.1,1.1,70,0.00,CLR,FEW,0.00,WeatherDisplay:10.37,2013-01-11 15:39:00,
2013-01-11 10:44:00,36.7,27.8,30.24,NNE,26,3.5,3.5,70,0.00,CLR,FEW,0.00,WeatherDisplay:10.37,2013-01-11 15:44:00,
2013-01-11 10:49:00,36.8,27.6,30.24,NNE,26,3.5,3.5,69,0.00,CLR,FEW,0.00,WeatherDisplay:10.37,2013-01-11 15:49:00,
2013-01-11 10:54:00,36.8,27.9,30.23,NNE,28,4.6,4.6,70,0.00,CLR,FEW,0.00,WeatherDisplay:10.37,2013-01-11 15:54:00,
2013-01-11 10:59:00,36.8,27.9,30.22,ENE,62,3.5,3.5,70,0.00,CLR,FEW,0.00,WeatherDisplay:10.37,2013-01-11 15:59:00,
2013-01-11 11:04:00,36.7,27.5,30.20,East,81,4.0,4.0,69,0.00,CLR,FEW,0.00,WeatherDisplay:10.37,2013-01-11 16:04:00,
2013-01-11 11:09:00,36.7,27.5,30.20,East,98,9.2,9.2,69,0.00,CLR,FEW,0.00,WeatherDisplay:10.37,2013-01-11 16:09:00,
2013-01-11 11:14:00,36.8,27.9,30.20,East,91,3.5,3.5,70,0.00,CLR,FEW,0.00,WeatherDisplay:10.37,2013-01-11 16:14:00,
2013-01-11 11:19:00,37.0,27.8,30.21,East,83,3.5,3.5,69,0.00,CLR,FEW,0.00,WeatherDisplay:10.37,2013-01-11 16:19:00,
2013-01-11 11:24:00,37.0,27.8,30.20,East,83,3.5,3.5,69,0.00,CLR,FEW,0.00,WeatherDisplay:10.37,2013-01-11 16:24:00,
2013-01-11 11:29:00,37.1,28.2,30.20,East,94,6.9,6.9,70,0.00,CLR,FEW,0.00,WeatherDisplay:10.37,2013-01-11 16:29:00,
2013-01-11 11:34:00,37.3,28.1,30.19,East,92,5.8,5.8,69,0.00,CLR,FEW,0.00,WeatherDisplay:10.37,2013-01-11 16:34:00,
2013-01-11 11:39:00,37.3,28.1,30.18,ENE,74,6.0,6.0,69,0.00,CLR,FEW,0.00,WeatherDisplay:10.37,2013-01-11 16:39:00,
2013-01-11 11:44:00,37.3,28.1,30.17,ENE,78,5.8,5.8,69,0.00,CLR,FEW,0.00,WeatherDisplay:10.37,2013-01-11 16:44:00,
2013-01-11 11:49:00,37.6,28.7,30.17,ENE,77,5.8,5.8,70,0.00,CLR,FEW,0.00,WeatherDisplay:10.37,2013-01-11 16:49:00,
2013-01-11 11:54:00,37.7,28.4,30.16,East,84,4.6,4.6,69,0.00,CLR,FEW,0.00,WeatherDisplay:10.37,2013-01-11 16:54:00,
2013-01-11 11:59:00,37.7,28.4,30.16,East,94,5.0,5.0,69,0.00,CLR,FEW,0.00,WeatherDisplay:10.37,2013-01-11 16:59:00,
2013-01-11 12:04:00,37.8,28.9,30.15,East,95,4.6,4.6,70,0.00,CLR,FEW,0.00,WeatherDisplay:10.37,2013-01-11 17:04:00,
2013-01-11 12:09:00,37.8,28.5,30.16,East,94,3.5,3.5,69,0.00,CLR,FEW,0.00,WeatherDisplay:10.37,2013-01-11 17:09:00,
2013-01-11 12:14:00,37.9,28.6,30.16,East,94,3.5,3.5,69,0.00,CLR,FEW,0.00,WeatherDisplay:10.37,2013-01-11 17:14:00,
2013-01-11 12:19:00,38.2,29.3,30.15,East,94,4.0,4.0,70,0.00,CLR,FEW,0.00,WeatherDisplay:10.37,2013-01-11 17:19:00,
2013-01-11 12:24:00,38.3,29.4,30.14,East,98,2.3,2.3,70,0.00,CLR,FEW,0.00,WeatherDisplay:10.37,2013-01-11 17:24:00,
2013-01-11 12:29:00,38.6,29.7,30.14,ESE,103,6.0,6.0,70,0.00,CLR,FEW,0.00,WeatherDisplay:10.37,2013-01-11 17:29:00,
2013-01-11 12:34:00,38.8,29.8,30.14,ESE,114,8.1,8.1,70,0.00,CLR,FEW,0.00,WeatherDisplay:10.37,2013-01-11 17:34:00,
2013-01-11 12:39:00,38.8,29.8,30.15,ESE,112,4.6,4.6,70,0.00,CLR,FEW,0.00,WeatherDisplay:10.37,2013-01-11 17:39:00,
2013-01-11 12:44:00,38.9,29.9,30.15,ESE,112,1.1,1.1,70,0.00,CLR,FEW,0.00,WeatherDisplay:10.37,2013-01-11 17:44:00,
2013-01-11 12:49:00,39.1,30.1,30.15,ESE,112,4.0,4.0,70,0.00,CLR,FEW,0.00,WeatherDisplay:10.37,2013-01-11 17:49:00,
2013-01-11 12:54:00,39.3,30.3,30.15,ESE,112,3.5,3.5,70,0.00,CLR,FEW,0.00,WeatherDisplay:10.37,2013-01-11 17:54:00,
2013-01-11 12:59:00,39.4,30.4,30.15,ESE,115,5.0,5.0,70,0.00,CLR,FEW,0.00,WeatherDisplay:10.37,2013-01-11 17:59:00,
2013-01-11 13:04:00,39.4,30.8,30.15,ESE,116,5.8,5.8,71,0.00,CLR,FEW,0.00,WeatherDisplay:10.37,2013-01-11 18:04:00,
2013-01-11 13:09:00,39.3,30.7,30.14,ESE,114,4.6,4.6,71,0.00,CLR,FEW,0.00,WeatherDisplay:10.37,2013-01-11 18:09:00,
2013-01-11 13:14:00,39.3,31.0,30.14,ESE,111,3.5,3.5,72,0.00,CLR,FEW,0.00,WeatherDisplay:10.37,2013-01-11 18:14:00,
2013-01-11 13:19:00,39.2,31.3,30.14,ESE,111,3.5,3.5,73,0.00,CLR,FEW,0.00,WeatherDisplay:10.37,2013-01-11 18:19:00,
2013-01-11 13:24:00,39.2,31.3,30.14,ESE,113,3.5,3.5,73,0.00,CLR,FEW,0.00,WeatherDisplay:10.37,2013-01-11 18:24:00,
2013-01-11 13:29:00,39.2,31.3,30.14,ESE,113,0.0,0.0,73,0.00,CLR,FEW,0.00,WeatherDisplay:10.37,2013-01-11 18:29:00,
2013-01-11 13:34:00,39.3,31.7,30.14,ESE,113,0.0,0.0,74,0.00,CLR,FEW,0.00,WeatherDisplay:10.37,2013-01-11 18:34:00,
2013-01-11 13:39:00,39.3,31.7,30.14,ESE,113,2.3,2.3,74,0.00,CLR,FEW,0.00,WeatherDisplay:10.37,2013-01-11 18:39:00,
2013-01-11 13:44:00,39.2,31.6,30.14,ESE,113,3.5,3.5,74,0.00,CLR,FEW,0.00,WeatherDisplay:10.37,2013-01-11 18:44:00,
2013-01-11 13:49:00,39.0,31.7,30.13,ESE,113,2.3,2.3,75,0.00,CLR,FEW,0.00,WeatherDisplay:10.37,2013-01-11 18:49:00,
2013-01-11 13:54:00,38.9,31.6,30.13,ESE,113,0.0,0.0,75,0.00,CLR,FEW,0.00,WeatherDisplay:10.37,2013-01-11 18:54:00,
2013-01-11 13:59:00,38.9,32.0,30.13,ESE,113,1.1,1.1,76,0.00,CLR,FEW,0.00,WeatherDisplay:10.37,2013-01-11 18:59:00,
2013-01-11 14:04:00,38.7,32.1,30.13,ESE,109,3.5,3.5,77,0.00,CLR,FEW,0.00,WeatherDisplay:10.37,2013-01-11 19:04:00,
2013-01-11 14:09:00,38.6,32.3,30.12,ESE,108,3.5,3.5,78,0.01,RA,FEW,0.01,WeatherDisplay:10.37,2013-01-11 19:09:00,
2013-01-11 14:14:00,38.5,32.2,30.12,ESE,108,3.5,3.5,78,0.01,,FEW,0.01,WeatherDisplay:10.37,2013-01-11 19:14:00,
2013-01-11 14:19:00,38.4,32.5,30.12,ESE,108,3.5,3.5,79,0.01,CLR,FEW,0.01,WeatherDisplay:10.37,2013-01-11 19:19:00,
2013-01-11 14:24:00,38.4,32.5,30.11,ESE,108,3.5,3.5,79,0.01,CLR,FEW,0.01,WeatherDisplay:10.37,2013-01-11 19:24:00,
2013-01-11 14:29:00,38.3,32.7,30.11,ESE,108,3.5,3.5,80,0.01,CLR,FEW,0.01,WeatherDisplay:10.37,2013-01-11 19:29:00,
2013-01-11 14:34:00,38.4,33.1,30.11,ESE,108,3.5,3.5,81,0.01,CLR,FEW,0.01,WeatherDisplay:10.37,2013-01-11 19:34:00,
2013-01-11 14:39:00,38.5,33.5,30.10,ESE,108,2.3,2.3,82,0.01,CLR,FEW,0.01,WeatherDisplay:10.37,2013-01-11 19:39:00,
2013-01-11 14:44:00,38.6,33.6,30.10,ESE,108,3.5,3.5,82,0.01,CLR,FEW,0.01,WeatherDisplay:10.37,2013-01-11 19:44:00,
2013-01-11 14:49:00,38.6,33.6,30.11,ESE,110,4.6,4.6,82,0.01,CLR,FEW,0.01,WeatherDisplay:10.37,2013-01-11 19:49:00,
2013-01-11 14:54:00,38.6,33.6,30.11,ESE,112,0.0,0.0,82,0.01,CLR,FEW,0.01,WeatherDisplay:10.37,2013-01-11 19:54:00,
2013-01-11 14:59:00,38.6,33.6,30.11,ESE,113,3.5,3.5,82,0.01,CLR,FEW,0.01,WeatherDisplay:10.37,2013-01-11 19:59:00,
2013-01-11 15:04:00,38.6,33.6,30.11,ESE,113,2.3,2.3,82,0.01,CLR,FEW,0.01,WeatherDisplay:10.37,2013-01-11 20:04:00,
2013-01-11 15:09:00,38.8,34.1,30.10,ESE,113,0.0,0.0,83,0.00,CLR,FEW,0.01,WeatherDisplay:10.37,2013-01-11 20:09:00,
2013-01-11 15:14:00,38.5,33.8,30.10,ESE,109,3.5,3.5,83,0.00,CLR,FEW,0.01,WeatherDisplay:10.37,2013-01-11 20:14:00,
2013-01-11 15:19:00,38.5,33.8,30.10,ESE,109,2.3,2.3,83,0.00,CLR,FEW,0.01,WeatherDisplay:10.37,2013-01-11 20:19:00,
2013-01-11 15:24:00,38.5,33.8,30.10,ESE,109,3.5,3.5,83,0.00,CLR,FEW,0.01,WeatherDisplay:10.37,2013-01-11 20:24:00,
2013-01-11 15:29:00,38.3,33.9,30.09,ESE,107,4.6,4.6,84,0.00,CLR,FEW,0.01,WeatherDisplay:10.37,2013-01-11 20:29:00,
2013-01-11 15:34:00,38.3,33.9,30.09,ESE,107,4.6,4.6,84,0.00,CLR,FEW,0.01,WeatherDisplay:10.37,2013-01-11 20:34:00,
2013-01-11 15:39:00,38.3,33.9,30.09,ESE,107,2.3,2.3,84,0.00,CLR,FEW,0.01,WeatherDisplay:10.37,2013-01-11 20:39:00,
2013-01-11 15:44:00,38.2,34.1,30.09,ESE,106,3.5,3.5,85,0.00,CLR,FEW,0.01,WeatherDisplay:10.37,2013-01-11 20:44:00,
2013-01-11 15:49:00,38.2,34.1,30.08,ESE,107,2.3,2.3,85,0.00,CLR,FEW,0.01,WeatherDisplay:10.37,2013-01-11 20:49:00,
2013-01-11 15:54:00,38.2,34.4,30.08,ESE,106,2.3,2.3,86,0.00,CLR,FEW,0.01,WeatherDisplay:10.37,2013-01-11 20:54:00,
2013-01-11 15:59:00,38.0,34.5,30.08,ESE,106,3.5,3.5,87,0.00,CLR,FEW,0.01,WeatherDisplay:10.37,2013-01-11 20:59:00,
2013-01-11 16:04:00,38.2,34.7,30.08,ESE,106,1.1,1.1,87,0.00,CLR,FEW,0.01,WeatherDisplay:10.37,2013-01-11 21:04:00,
2013-01-11 16:09:00,38.3,34.8,30.08,ESE,106,0.0,0.0,87,0.00,CLR,FEW,0.01,WeatherDisplay:10.37,2013-01-11 21:09:00,
2013-01-11 16:14:00,38.0,34.5,30.08,ESE,106,0.0,0.0,87,0.00,CLR,FEW,0.01,WeatherDisplay:10.37,2013-01-11 21:14:00,
2013-01-11 16:19:00,38.0,34.5,30.07,ESE,106,3.5,3.5,87,0.00,CLR,FEW,0.01,WeatherDisplay:10.37,2013-01-11 21:19:00,
2013-01-11 16:24:00,38.0,34.8,30.07,East,89,3.5,3.5,88,0.00,CLR,FEW,0.01,WeatherDisplay:10.37,2013-01-11 21:24:00,
2013-01-11 16:29:00,38.1,34.9,30.08,East,88,3.5,3.5,88,0.00,CLR,FEW,0.01,WeatherDisplay:10.37,2013-01-11 21:29:00,
2013-01-11 16:34:00,38.0,34.8,30.07,East,89,3.5,3.5,88,0.00,CLR,FEW,0.01,WeatherDisplay:10.37,2013-01-11 21:34:00,
2013-01-11 16:39:00,37.9,34.9,30.06,East,89,3.5,3.5,89,0.01,RA,FEW,0.02,WeatherDisplay:10.37,2013-01-11 21:39:00,
2013-01-11 16:44:00,37.9,35.2,30.06,East,89,0.0,0.0,90,0.01,,FEW,0.02,WeatherDisplay:10.37,2013-01-11 21:44:00,
2013-01-11 16:49:00,38.0,35.3,30.07,East,89,2.3,2.3,90,0.01,CLR,FEW,0.02,WeatherDisplay:10.37,2013-01-11 21:49:00,
2013-01-11 16:54:00,37.9,35.5,30.06,East,89,3.5,3.5,91,0.01,CLR,FEW,0.02,WeatherDisplay:10.37,2013-01-11 21:54:00,
2013-01-11 16:59:00,37.6,35.2,30.06,East,88,3.5,3.5,91,0.01,CLR,FEW,0.02,WeatherDisplay:10.37,2013-01-11 21:59:00,
2013-01-11 17:04:00,37.7,35.3,30.06,East,88,0.0,0.0,91,0.02,RA,FEW,0.03,WeatherDisplay:10.37,2013-01-11 22:04:00,
2013-01-11 17:09:00,37.6,35.2,30.06,East,89,0.0,0.0,91,0.02,CLR,FEW,0.03,WeatherDisplay:10.37,2013-01-11 22:09:00,
2013-01-11 17:14:00,37.6,35.5,30.06,East,89,3.5,3.5,92,0.02,CLR,FEW,0.03,WeatherDisplay:10.37,2013-01-11 22:14:00,
2013-01-11 17:19:00,37.6,35.5,30.06,East,88,0.0,0.0,92,0.03,RA,FEW,0.04,WeatherDisplay:10.37,2013-01-11 22:19:00,
2013-01-11 17:24:00,37.6,35.8,30.06,East,88,0.0,0.0,93,0.04,RA,FEW,0.05,WeatherDisplay:10.37,2013-01-11 22:24:00,
2013-01-11 17:29:00,37.5,35.7,30.05,East,88,0.0,0.0,93,0.04,,FEW,0.05,WeatherDisplay:10.37,2013-01-11 22:29:00,
2013-01-11 17:34:00,37.6,36.0,30.04,East,88,2.3,2.3,94,0.04,CLR,FEW,0.05,WeatherDisplay:10.37,2013-01-11 22:34:00,
2013-01-11 17:39:00,37.6,36.0,30.05,East,89,1.1,1.1,94,0.04,RA,FEW,0.06,WeatherDisplay:10.37,2013-01-11 22:39:00,
2013-01-11 17:44:00,37.6,36.3,30.04,East,89,0.0,0.0,95,0.04,,FEW,0.06,WeatherDisplay:10.37,2013-01-11 22:44:00,
2013-01-11 17:49:00,37.5,36.2,30.04,East,89,2.3,2.3,95,0.04,CLR,FEW,0.06,WeatherDisplay:10.37,2013-01-11 22:49:00,
2013-01-11 17:54:00,37.5,36.5,30.04,East,88,1.1,0.0,96,0.04,CLR,FEW,0.06,WeatherDisplay:10.37,2013-01-11 22:54:00,
2013-01-11 17:59:00,37.5,36.5,30.04,East,89,2.3,2.3,96,0.04,CLR,FEW,0.06,WeatherDisplay:10.37,2013-01-11 22:59:00,
2013-01-11 18:04:00,37.4,36.4,30.04,East,89,0.0,0.0,96,0.04,RA,FEW,0.07,WeatherDisplay:10.37,2013-01-11 23:04:00,
2013-01-11 18:09:00,37.3,36.3,30.04,East,89,0.0,0.0,96,0.05,RA,FEW,0.08,WeatherDisplay:10.37,2013-01-11 23:09:00,
2013-01-11 18:14:00,37.3,36.5,30.03,East,88,0.0,0.0,97,0.05,RA,FEW,0.08,WeatherDisplay:10.37,2013-01-11 23:14:00,
2013-01-11 18:19:00,37.2,36.4,30.02,East,89,3.5,3.5,97,0.05,RA,FEW,0.09,WeatherDisplay:10.37,2013-01-11 23:19:00,
2013-01-11 18:24:00,37.1,36.6,30.02,East,88,3.5,3.5,98,0.04,,FEW,0.09,WeatherDisplay:10.37,2013-01-11 23:24:00,
2013-01-11 18:29:00,37.1,36.8,30.02,East,89,4.0,4.0,99,0.04,CLR,FEW,0.09,WeatherDisplay:10.37,2013-01-11 23:29:00,
2013-01-11 18:34:00,37.0,36.7,30.02,East,89,3.5,3.5,99,0.05,RA,FEW,0.10,WeatherDisplay:10.37,2013-01-11 23:34:00,
2013-01-11 18:39:00,36.9,36.6,30.02,East,89,4.6,4.6,99,0.04,CLR,FEW,0.10,WeatherDisplay:10.37,2013-01-11 23:39:00,
2013-01-11 18:44:00,36.8,36.8,30.02,East,82,4.6,4.6,100,0.04,,FEW,0.10,WeatherDisplay:10.37,2013-01-11 23:44:00,
2013-01-11 18:49:00,36.8,36.8,30.01,East,82,3.5,3.5,100,0.05,RA,FEW,0.11,WeatherDisplay:10.37,2013-01-11 23:49:00,
2013-01-11 18:54:00,36.9,36.9,30.01,East,79,4.0,4.0,100,0.07,RA,FEW,0.13,WeatherDisplay:10.37,2013-01-11 23:54:00,
2013-01-11 18:59:00,36.9,36.9,30.01,ENE,75,5.0,5.0,100,0.07,RA,FEW,0.13,WeatherDisplay:10.37,2013-01-11 23:59:00,
2013-01-11 19:04:00,36.8,36.8,30.00,NE,55,4.6,4.6,100,0.07,RA,FEW,0.14,WeatherDisplay:10.37,2013-01-12 00:04:00,
2013-01-11 19:09:00,36.9,36.9,30.01,NE,55,4.6,4.6,100,0.08,RA,FEW,0.16,WeatherDisplay:10.37,2013-01-12 00:09:00,
2013-01-11 19:14:00,36.8,36.8,30.01,WNW,301,3.5,3.5,100,0.09,RA,FEW,0.17,WeatherDisplay:10.37,2013-01-12 00:14:00,
2013-01-11 19:19:00,36.9,36.9,30.02,NW,307,5.0,5.0,100,0.10,RA,FEW,0.19,WeatherDisplay:10.37,2013-01-12 00:19:00,
2013-01-11 19:24:00,36.6,36.6,30.02,NW,311,4.6,4.6,100,0.12,RA,FEW,0.21,WeatherDisplay:10.37,2013-01-12 00:24:00,
2013-01-11 19:29:00,36.7,36.7,30.01,NW,317,4.6,4.6,100,0.14,RA,FEW,0.23,WeatherDisplay:10.37,2013-01-12 00:29:00,
2013-01-11 19:34:00,36.7,36.7,30.02,NW,321,6.9,6.9,100,0.14,RA,FEW,0.24,WeatherDisplay:10.37,2013-01-12 00:34:00,
2013-01-11 19:39:00,36.7,36.7,30.02,NW,310,4.6,4.6,100,0.15,RA,FEW,0.25,WeatherDisplay:10.37,2013-01-12 00:39:00,
2013-01-11 19:44:00,36.8,36.8,30.02,NW,310,0.0,0.0,100,0.15,RA,FEW,0.25,WeatherDisplay:10.37,2013-01-12 00:44:00,
2013-01-11 19:49:00,36.8,36.8,30.01,NW,310,0.0,0.0,100,0.16,RA,FEW,0.27,WeatherDisplay:10.37,2013-01-12 00:49:00,
2013-01-11 19:54:00,36.9,36.9,30.01,NW,310,0.0,0.0,100,0.14,RA,FEW,0.27,WeatherDisplay:10.37,2013-01-12 00:54:00,
2013-01-11 19:59:00,37.0,37.0,30.01,NW,310,0.0,0.0,100,0.15,RA,FEW,0.28,WeatherDisplay:10.37,2013-01-12 00:59:00,
2013-01-11 20:04:00,37.1,37.1,30.01,NW,310,0.0,0.0,100,0.14,,FEW,0.28,WeatherDisplay:10.37,2013-01-12 01:04:00,
2013-01-11 20:09:00,37.2,37.2,30.01,NW,310,0.0,0.0,100,0.13,RA,FEW,0.29,WeatherDisplay:10.37,2013-01-12 01:09:00,
2013-01-11 20:14:00,37.3,37.3,30.01,NW,310,0.0,0.0,100,0.12,,FEW,0.29,WeatherDisplay:10.37,2013-01-12 01:14:00,
2013-01-11 20:19:00,37.3,37.3,30.00,NW,310,0.0,0.0,100,0.10,CLR,FEW,0.29,WeatherDisplay:10.37,2013-01-12 01:19:00,
2013-01-11 20:24:00,37.3,37.3,30.00,NW,310,0.0,0.0,100,0.08,CLR,FEW,0.29,WeatherDisplay:10.37,2013-01-12 01:24:00,
2013-01-11 20:29:00,37.4,37.4,30.00,NW,310,0.0,0.0,100,0.06,CLR,FEW,0.29,WeatherDisplay:10.37,2013-01-12 01:29:00,
2013-01-11 20:34:00,37.3,37.3,30.00,NW,310,0.0,0.0,100,0.05,CLR,FEW,0.29,WeatherDisplay:10.37,2013-01-12 01:34:00,
2013-01-11 20:39:00,37.2,37.2,29.99,NW,310,2.3,2.3,100,0.04,CLR,FEW,0.29,WeatherDisplay:10.37,2013-01-12 01:39:00,
2013-01-11 20:44:00,37.2,37.2,29.99,NW,310,2.3,2.3,100,0.04,CLR,FEW,0.29,WeatherDisplay:10.37,2013-01-12 01:44:00,
2013-01-11 20:49:00,37.3,37.3,29.99,NW,310,2.3,2.3,100,0.02,CLR,FEW,0.29,WeatherDisplay:10.37,2013-01-12 01:49:00,
2013-01-11 20:54:00,37.3,37.3,29.99,NW,310,0.0,0.0,100,0.02,CLR,FEW,0.29,WeatherDisplay:10.37,2013-01-12 01:54:00,
2013-01-11 20:59:00,37.3,37.3,29.99,NW,310,0.0,0.0,100,0.01,CLR,FEW,0.29,WeatherDisplay:10.37,2013-01-12 01:59:00,
2013-01-11 21:04:00,37.4,37.4,29.99,NW,310,0.0,0.0,100,0.01,CLR,FEW,0.29,WeatherDisplay:10.37,2013-01-12 02:04:00,
2013-01-11 21:09:00,37.4,37.4,29.99,NW,310,3.5,3.5,100,0.01,RA,FEW,0.30,WeatherDisplay:10.37,2013-01-12 02:09:00,
2013-01-11 21:14:00,37.6,37.6,29.98,NW,310,0.0,0.0,100,0.01,CLR,FEW,0.30,WeatherDisplay:10.37,2013-01-12 02:14:00,
2013-01-11 21:19:00,37.4,37.4,29.98,NW,311,0.0,0.0,100,0.01,CLR,FEW,0.30,WeatherDisplay:10.37,2013-01-12 02:19:00,
2013-01-11 21:24:00,37.6,37.6,29.98,NW,310,0.0,0.0,100,0.01,CLR,FEW,0.30,WeatherDisplay:10.37,2013-01-12 02:24:00,
2013-01-11 21:29:00,37.7,37.7,29.98,NW,310,0.0,0.0,100,0.01,CLR,FEW,0.30,WeatherDisplay:10.37,2013-01-12 02:29:00,
2013-01-11 21:34:00,37.7,37.7,29.98,NW,310,0.0,0.0,100,0.01,CLR,FEW,0.30,WeatherDisplay:10.37,2013-01-12 02:34:00,
2013-01-11 21:39:00,37.8,37.8,29.98,NW,311,0.0,0.0,100,0.01,CLR,FEW,0.30,WeatherDisplay:10.37,2013-01-12 02:39:00,
2013-01-11 21:44:00,37.8,37.8,29.98,NW,310,0.0,0.0,100,0.01,CLR,FEW,0.30,WeatherDisplay:10.37,2013-01-12 02:44:00,
2013-01-11 21:49:00,37.9,37.9,29.97,NW,310,0.0,0.0,100,0.01,CLR,FEW,0.30,WeatherDisplay:10.37,2013-01-12 02:49:00,
2013-01-11 21:54:00,38.0,38.0,29.98,NW,310,0.0,0.0,100,0.01,CLR,FEW,0.30,WeatherDisplay:10.37,2013-01-12 02:54:00,
2013-01-11 21:59:00,38.0,38.0,29.97,NW,310,0.0,0.0,100,0.02,RA,FEW,0.31,WeatherDisplay:10.37,2013-01-12 02:59:00,
2013-01-11 22:04:00,38.0,38.0,29.97,NW,310,0.0,0.0,100,0.02,RA,FEW,0.31,WeatherDisplay:10.37,2013-01-12 03:04:00,
2013-01-11 22:09:00,38.1,38.1,29.97,NW,310,0.0,0.0,100,0.01,CLR,FEW,0.31,WeatherDisplay:10.37,2013-01-12 03:09:00,
2013-01-11 22:14:00,38.2,38.2,29.98,NW,310,3.5,3.5,100,0.01,CLR,FEW,0.31,WeatherDisplay:10.37,2013-01-12 03:14:00,
2013-01-11 22:19:00,38.2,38.2,29.97,NW,310,3.5,3.5,100,0.01,CLR,FEW,0.31,WeatherDisplay:10.37,2013-01-12 03:19:00,
2013-01-11 22:24:00,38.2,38.2,29.97,NW,310,3.5,3.5,100,0.01,CLR,FEW,0.31,WeatherDisplay:10.37,2013-01-12 03:24:00,
2013-01-11 22:29:00,38.1,38.1,29.96,NW,310,2.3,2.3,100,0.01,CLR,FEW,0.31,WeatherDisplay:10.37,2013-01-12 03:29:00,
2013-01-11 22:34:00,38.1,38.1,29.96,NW,310,2.3,2.3,100,0.01,CLR,FEW,0.31,WeatherDisplay:10.37,2013-01-12 03:34:00,
2013-01-11 22:39:00,38.1,38.1,29.96,NW,310,3.5,3.5,100,0.01,CLR,FEW,0.31,WeatherDisplay:10.37,2013-01-12 03:39:00,
2013-01-11 22:44:00,38.1,38.1,29.95,NW,310,4.6,4.6,100,0.01,CLR,FEW,0.31,WeatherDisplay:10.37,2013-01-12 03:44:00,
2013-01-11 22:49:00,38.2,38.2,29.95,NW,310,4.6,4.6,100,0.01,CLR,FEW,0.31,WeatherDisplay:10.37,2013-01-12 03:49:00,
2013-01-11 22:54:00,38.3,38.3,29.96,NW,310,3.5,3.5,100,0.01,CLR,FEW,0.31,WeatherDisplay:10.37,2013-01-12 03:54:00,
2013-01-11 22:59:00,38.4,38.4,29.96,NW,310,3.5,3.5,100,0.00,CLR,FEW,0.31,WeatherDisplay:10.37,2013-01-12 03:59:00,
2013-01-11 23:04:00,38.5,38.5,29.96,NW,310,2.3,2.3,100,0.00,,FEW,0.31,WeatherDisplay:10.37,2013-01-12 04:04:00,
2013-01-11 23:09:00,38.7,38.7,29.96,NW,310,0.0,0.0,100,0.01,RA,FEW,0.32,WeatherDisplay:10.37,2013-01-12 04:09:00,
2013-01-11 23:14:00,38.7,38.7,29.96,NW,310,2.3,2.3,100,0.02,RA,FEW,0.34,WeatherDisplay:10.37,2013-01-12 04:14:00,
2013-01-11 23:19:00,38.9,38.9,29.94,ENE,65,5.8,5.8,100,0.05,RA,FEW,0.36,WeatherDisplay:10.37,2013-01-12 04:19:00,
2013-01-11 23:24:00,39.0,39.0,29.94,ENE,61,3.5,3.5,100,0.06,RA,FEW,0.37,WeatherDisplay:10.37,2013-01-12 04:24:00,
2013-01-11 23:29:00,39.3,39.3,29.94,NE,54,2.3,2.3,100,0.10,RA,FEW,0.41,WeatherDisplay:10.37,2013-01-12 04:29:00,
2013-01-11 23:34:00,39.4,39.4,29.94,NE,54,2.3,2.3,100,0.11,RA,FEW,0.42,WeatherDisplay:10.37,2013-01-12 04:34:00,
2013-01-11 23:39:00,39.5,39.5,29.94,NNE,27,4.6,4.6,100,0.12,RA,FEW,0.43,WeatherDisplay:10.37,2013-01-12 04:39:00,
2013-01-11 23:44:00,39.5,39.5,29.93,NNE,21,3.5,3.5,100,0.12,RA,FEW,0.43,WeatherDisplay:10.37,2013-01-12 04:44:00,
2013-01-11 23:49:00,39.9,39.9,29.93,NNE,18,4.0,4.0,100,0.12,CLR,FEW,0.43,WeatherDisplay:10.37,2013-01-12 04:49:00,
2013-01-11 23:54:00,40.1,40.1,29.93,NNE,18,3.5,3.5,100,0.12,CLR,FEW,0.43,WeatherDisplay:10.37,2013-01-12 04:54:00,
2013-01-11 23:59:00,40.2,40.2,29.93,NNE,18,2.3,2.3,100,0.12,CLR,FEW,0.43,WeatherDisplay:10.37,2013-01-12 04:59:00,